Regional Weather Roundup
Issued by NWS

Home | Current Version | Previous Version | Graphics & Text | Print | Product List | Glossary On
Versions: 1 2 3 4 5 6 7 8 9 10 11 12 13 14 15 16 17 18 19 20 21 22 23 24 25 26 27 28 29 30 31 32 33 34 35 36 37 38 39 40 41 42 43 44 45 46 47 48 49 50
000
ASUS43 KLOT 301709
RWRIL

ILLINOIS REGIONAL WEATHER ROUNDUP
NATIONAL WEATHER SERVICE CHICAGO/ROMEOVILLE IL
1200 PM CDT TUE AUG 30 2016

NOTE: "FAIR" INDICATES FEW OR NO CLOUDS BELOW 12,000 FEET WITH NO
SIGNIFICANT WEATHER AND/OR OBSTRUCTIONS TO VISIBILITY.

* THESE STATIONS ARE NOT UNDER NWS QUALITY CONTROL. THEY ALSO MAY NOT
  REPORT WEATHER SUCH AS PRECIPITATION OR FOG.

ILZ001-002-007-009-015-016-024-301800-
NORTHWEST ILLINOIS

CITY           SKY/WX    TMP DP  RH WIND       PRES   REMARKS
MOLINE         MOSUNNY   79  70  74 W5        30.14S HX  82
STERLING*      MOSUNNY   79  72  79 W8        30.14S HX  82
SAVANNA*       MOSUNNY   78  71  77 CALM      30.15S HX  81
$$

ILZ003-004-008-010-011-017-018-301800-
NORTH CENTRAL ILLINOIS

CITY           SKY/WX    TMP DP  RH WIND       PRES   REMARKS
ROCKFORD       CLOUDY    80  70  71 CALM      30.15F HX  83
FREEPORT*      CLOUDY    76  70  84 W3        30.17S
ROCHELLE*      MOSUNNY   75  69  81 W3        30.15S
DE KALB*       MOSUNNY   75  70  83 CALM      30.15F
$$

ILZ005-006-012>014-019>023-301800-
NORTHEAST ILLINOIS

CITY           SKY/WX    TMP DP  RH WIND       PRES   REMARKS
CHICAGO-OHARE  CLOUDY    80  71  74 N5        30.12F HX  84
CHICAGO-MIDWAY CLOUDY    81  72  74 CALM      30.11F HX  85
AURORA         CLOUDY    77  69  76 NW6       30.14S
LANSING*       CLOUDY    78  73  84 CALM      30.13F HX  81
JOLIET*        CLOUDY    78  71  79 CALM      30.13S HX  80
WAUKEGAN       PTSUNNY   80  70  71 S5        30.12S HX  83
DUPAGE AIRPORT CLOUDY    77  67  71 NW5       30.14R
KANKAKEE*      CLOUDY    79  70  74 S5        30.13F HX  81
WHEELING       CLOUDY    80  71  74 CALM      30.13F HX  84
MORRIS*        CLOUDY    76  69  79 CALM      30.11F
ROMEOVILLE*    CLOUDY    76  73  90 CALM      30.13F
NORTHERLY ISL    N/A     75  71  87 E9          N/A
$$

LMZ740>746-301800-
SOUTHERN LAKE MICHIGAN

STATION/POSITION SKY/WX   TEMP    WIND        PRES    VSBY  WAVE
                          AIR SEA DIR/SP/G                  HT/PER
                          (F)     (DEG/KT/KT) (MB)    (MI)  (FT/S)
SOUTHERN BUOY              75 75  200/  8/ 10 1019.5S         2/ 4
WILMETTE HARBOR            74 74  170/  6/  8   N/A           1/ 3
HARRISON CRIB              75     130/ 14/ 15   N/A
BURNHAM HARBOR             76     120/  5/  9   N/A
CALUMET HARBOR             74     110/  6/ 10 1020.0S
BURNS HARBOR               74     100/  7/ 15 1021.0R
MICHIGAN CITY              72      90/  4/  7   N/A
MICHIGAN CITY 6N           71 68  150/  6/ 10   N/A           1/ 3
ST. JOSEPH                 70 70  190/  4/  4 1019.9F         0
$$

ILZ025>027-034>036-040-047-049-050-058-095>099-301800-
WEST-CENTRAL ILLINOIS

CITY           SKY/WX    TMP DP  RH WIND       PRES   REMARKS
QUINCY         LGT RAIN  71  69  93 SW10      30.17R
GALESBURG*     PTSUNNY   79  72  79 S9        30.14F HX  82
MACOMB*        PTSUNNY   76  72  87 S8        30.17F
JACKSONVILLE*  CLOUDY    74  71  91 E3        30.16F
PITTSFIELD*    LGT RAIN  73  71  96 N6        30.18S
$$

ILZ028>032-037-038-041>044-048-051>054-059>061-301800-
CENTRAL ILLINOIS

CITY           SKY/WX    TMP DP  RH WIND       PRES   REMARKS
PONTIAC        CLOUDY    74  73  97 CALM      30.13F
BLOOMINGTON    LGT RAIN  70  69  97 S6        30.14F
DECATUR        LGT RAIN  77  71  82 N5        30.16F
PEORIA         CLOUDY    79  74  84 S9        30.13F HX  82
LACON*         MOSUNNY   78  69  73 SW7       30.11F HX  80
LINCOLN*       CLOUDY    72  72  99 S7        30.14F
SPRINGFIELD    RAIN      73  71  93 S7        30.16F
TAYLORVILLE    CLOUDY    71  69  95 NE7       30.15F
$$

ILZ033-039-045-046-055>057-062-063-301800-
EAST-CENTRAL ILLINOIS

CITY           SKY/WX    TMP DP  RH WIND       PRES   REMARKS
CHAMPAIGN      CLOUDY    82  72  71 CALM      30.15F HX  87
RANTOUL*       PTSUNNY   82  75  78 SW5       30.13F HX  88
MATTOON        MOSUNNY   84  73  69 N6        30.14F HX  90
PARIS*         SUNNY     86  75  70 CALM      30.14F HX  94
$$

ILZ079-100>102-301800-
SOUTHWEST ILLINOIS

CITY           SKY/WX    TMP DP  RH WIND       PRES   REMARKS
ALTON          PTSUNNY   86  72  62 CALM      30.13F HX  92
BELLEVILLE     SUNNY     90  72  55 NE6       30.11F HX  96
CAHOKIA*       MOSUNNY   91  69  48 VRB5      30.11F HX  96
SPARTA*        SUNNY     85  73  65 CALM      30.13F HX  92
$$

ILZ064>066-069>071-074>076-080>082-084>086-088>090-092>094-301800-
SOUTH-CENTRAL ILLINOIS

CITY           SKY/WX    TMP DP  RH WIND       PRES   REMARKS
CARBONDALE     SUNNY     88  72  58 VRB5      30.12F HX  94
CAIRO*         SUNNY     88  76  67 E3        30.10S HX  98
EFFINGHAM*     MOSUNNY   86  73  64 CALM      30.16S HX  94
MARION         MOSUNNY   88  73  62 NE6       30.13S HX  96
MT. VERNON     MOSUNNY   90  72  55 SE5       30.13F HX  96
CENTRALIA*     SUNNY     87  76  69 NW3       30.12F HX  96
SALEM*         PTSUNNY   88  74  62 N5        30.13F HX  96
METROPOLIS*    MOSUNNY   90  74  59 NW3       30.10F HX  99
$$

ILZ067-068-072-073-078-083-087-091-301800-
SOUTHEAST ILLINOIS

CITY           SKY/WX    TMP DP  RH WIND       PRES   REMARKS
LAWRENCEVILLE  CLOUDY    86  72  62 SW5       30.13F HX  92
FLORA*         SUNNY     88  73  60 E3        30.13F HX  95
FAIRFIELD*     PTSUNNY   86  73  65 CALM      30.12S HX  93
HARRISBURG*    SUNNY     88  74  61 CALM      30.12F HX  97
ROBINSON*      MOSUNNY   84  74  70 CALM      30.14F HX  91
CARMI*         MOSUNNY   86  74  67 CALM      30.11F HX  94
$$

ABBREVIATIONS USED IN REMARKS
   TC - TEMPERATURE IN CELSIUS
  WCI - WIND CHILL INDEX
   HX - HEAT INDEX
  VSB - VISIBILITY
$$





USA.gov is the U.S. government's official web portal to all federal, state and local government web resources and services.